Fes-Sais, Morocco

3:55 AM WEST on October 19, 2017 (GMT +0100)
Fes-Sais

Weather History for GMFF - July, 2013

Change the Weather History Date:

Sunday, July 14, 2013

  Actual Average Record
Temperature  
Mean Temperature 72 °F -  
Max Temperature 89 °F 91 °F 112 °F (2017)
Min Temperature 55 °F 62 °F 55 °F (2013)
Cooling Degree Days 7    
Growing Degree Days 22 (Base 50)    
Moisture  
Dew Point 54 °F    
Average Humidity 53    
Maximum Humidity 82    
Minimum Humidity 20    
Precipitation  
Precipitation 0.00 in 0.00 in - ()
Sea Level Pressure  
Sea Level Pressure 30.13 in    
Wind  
Wind Speed 6 mph ()    
Max Wind Speed 40 mph    
Max Gust Speed 108 mph    
Visibility 7.1 miles    
Events      
Averages and records for this station are not official NWS values.
T = Trace of Precipitation, MM = Missing Value Source: Averaged Metar Reports

Daily Weather History Graph

Daily Weather History Graph

Search for Another Location

Airport or City:

Trip Planner

Search our weather history database for the weather conditions in past years. The results will help you decide how hot, cold, wet, or windy it might be!

Date:

Astronomy

Jul. 14, 2013 Rise Set
Actual Time 5:19 AM WET 7:31 PM WET
Civil Twilight 4:50 AM WET 8:00 PM WET
Nautical Twilight 4:15 AM WET 8:35 PM WET
Astronomical Twilight 3:38 AM WET 9:12 PM WET
Moon 11:02 AM WET (7/14) 10:57 PM WET (7/14)
Length of Visible Light 15h 09m
Length of Day
14h 12m
Waxing Crescent, 33% of the Moon is Illuminated
Jul 14
Waxing Crescent
Jul 16
First Quarter
Jul 22
Full
Jul 29
Last Quarter
Aug 6
New

Hourly Weather History & Observations

Time (WET) Temp. Heat Index Dew Point Humidity Pressure Visibility Wind Dir Wind Speed Gust Speed Precip Events Conditions
12:00 AM 64 °F - 51 °F 53% 30.14 in 6 mi WNW 6.7 mph - -  
12:00 AM 64.4 °F - 50.0 °F 59% 30.15 in - WNW 3.5 mph 108.2 mph N/A   Clear
1:00 AM 64.4 °F - 53.6 °F 68% 30.15 in - WSW 6.9 mph - N/A   Clear
2:00 AM 59.0 °F - 53.6 °F 82% 30.15 in - Variable 2.3 mph - N/A   Clear
3:00 AM 58 °F - 51 °F 71% 30.15 in 6 mi SW 8.9 mph - -  
3:00 AM 59.0 °F - 51.8 °F 77% 30.15 in - SW 5.8 mph - N/A   Clear
4:00 AM 59.0 °F - 53.6 °F 82% 30.15 in - WSW 4.6 mph - N/A   Clear
5:00 AM 55.4 °F - 50.0 °F 82% 30.15 in - SSW 3.5 mph - N/A   Clear
6:00 AM 57 °F - 50 °F 71% 30.14 in 6 mi SSW 4.5 mph - -  
6:00 AM 57.2 °F - 50.0 °F 77% 30.15 in - Variable 3.5 mph - N/A   Clear
7:00 AM 66.2 °F - 57.2 °F 73% 30.15 in - Variable 2.3 mph - N/A   Clear
8:00 AM 69.8 °F - 59.0 °F 68% 30.15 in - Variable 2.3 mph - N/A   Clear
9:00 AM 70 °F - 58 °F 58% 30.12 in 6 mi North 40.3 mph - -  
9:00 AM 71.6 °F - 57.2 °F 60% 30.15 in - Variable 3.5 mph - N/A   Clear
10:00 AM 77.0 °F - 57.2 °F 50% 30.15 in - North - - N/A   Clear
11:00 AM 80.6 °F - 51.8 °F 37% 30.15 in - NNE 4.6 mph - N/A   Clear
12:00 PM 81 °F - 53 °F 28% 30.06 in 17 mi NNE 8.9 mph - -  
12:00 PM 84.2 °F 82.8 °F 53.6 °F 35% 30.15 in - NW 5.8 mph - N/A   Clear
1:00 PM 86.0 °F 84.5 °F 55.4 °F 35% 30.12 in - NW 6.9 mph - N/A   Clear
2:00 PM 87.8 °F 85.7 °F 53.6 °F 31% 30.12 in - WNW 9.2 mph - N/A   Clear
3:00 PM 89 °F - 55 °F 21% 30.00 in 6 mi NW 17.9 mph - -  
3:00 PM 87.8 °F 86.1 °F 55.4 °F 33% 30.12 in - NW 9.2 mph - N/A   Clear
4:00 PM 87.8 °F - 51.8 °F 29% 30.09 in - Variable 9.2 mph - N/A   Clear
5:00 PM 87.8 °F - 50.0 °F 27% 30.09 in - NW 8.1 mph - N/A   Clear
6:00 PM 86 °F - 51 °F 20% 30.00 in 6 mi NW 15.7 mph - -  
6:00 PM 86.0 °F - 50.0 °F 29% 30.09 in - NNW 8.1 mph - N/A   Clear
7:00 PM 82.4 °F 81.4 °F 53.6 °F 37% 30.12 in 6.2 mi NW 9.2 mph - N/A   Partly Cloudy
9:00 PM 73 °F - 58 °F 50% 30.10 in 6 mi NW 3.5 mph - -   Scattered Clouds
9:00 PM 73.4 °F - 59.0 °F 61% 30.15 in - NW 3.5 mph - N/A   Clear
10:00 PM 71.6 °F - 55.4 °F 57% 30.18 in - South 2.3 mph - N/A   Clear
11:00 PM 68.0 °F - 57.2 °F 68% 30.15 in 6.2 mi West 4.6 mph - N/A   Partly Cloudy